Regional Weather Roundup
Issued by NWS

Home | Current Version | Previous Version | Graphics & Text | Print | Product List | Glossary On
Versions: 1 2 3 4 5 6 7 8 9 10 11 12 13 14 15 16 17 18 19 20 21 22 23 24 25 26 27
000
ASUS45 KCYS 212010
RWRWY

WYOMING REGIONAL WEATHER ROUNDUP
NATIONAL WEATHER SERVICE CHEYENNE WY
200 PM MDT SUN MAY 21 2017

NOTE:  "FAIR" INDICATES FEW OR NO CLOUDS BELOW 12,000 FEET
WITH NO SIGNIFICANT WEATHER AND/OR OBSTRUCTIONS TO VISIBILITY.

WYZ001-212100-
YELLOWSTONE NATIONAL PARK

CITY           SKY/WX    TMP DP  RH WIND       PRES   REMARKS
LK YELLOWSTONE   N/A     46  25  43 VRB6      30.32F
W YELLOWSTONE  NOT AVBL

$$
WYZ002>013-054>058-071-098>099-212100-
NORTHERN WYOMING

CITY           SKY/WX    TMP DP  RH WIND       PRES   REMARKS
JACKSON        MOSUNNY   57  27  30 N7        30.24F
CODY           FAIR      61  35  37 NE10G20   30.23F
GREYBULL       FAIR      65  31  28 NW17G26   30.17F
WORLAND        FAIR      65  33  30 N15G23    30.18F
SHERIDAN       FAIR      63  36  36 NW23G36   30.18S
BUFFALO        FAIR      59  38  45 W13       30.18F
GILLETTE       FAIR      59  41  51 N15G24    30.13F
HULETT         LGT RAIN  50  41  71 CALM      30.15S
NEWCASTLE      FAIR      54  37  54 W9        30.15F

$$
WYZ014>020-022>026-101>103-212100-
CENTRAL WYOMING

CITY           SKY/WX    TMP DP  RH WIND       PRES   REMARKS
BIG PINEY      FAIR      54  36  50 E10       30.25F
PINEDALE       MOCLDY    54  32  43 W14G21    30.24S
DUBOIS         MOCLDY    54  34  47 SE13G20   30.24F
LANDER         CLOUDY    52  37  56 VRB7      30.25F
RIVERTON       PTSUNNY   56  40  55 SW6       30.24F
CASPER         PTSUNNY   58  38  47 NW6       30.19F
DOUGLAS        PTSUNNY   50  43  77 SW16      30.20S

$$
WYZ021-027>030-104>119-212100-
SOUTHERN WYOMING

CITY           SKY/WX    TMP DP  RH WIND       PRES   REMARKS
EVANSTON       FAIR      57  37  47 N5        30.23F
KEMMERER         N/A     52  34  50 W6        30.25F
FORT BRIDGER   FAIR      59  33  37 S5        30.25F THUNDER
ROCK SPRINGS   PTSUNNY   51  39  63 E12       30.23F
DIXON            N/A     61  31  32 SW9       30.21F
RAWLINS        FAIR      55  35  47 N13       30.23S
SARATOGA       CLOUDY    45  37  76 SE5       30.26R THUNDER
LARAMIE        CLOUDY    49  34  56 NW10      30.22F
CHEYENNE       FAIR      53  37  54 W9G16     30.22S
TORRINGTON     TSTM      54  43  66 NW17G24   30.15R
PINE BLUFFS    FAIR      59  34  38 W10G17    30.18F

$$




USA.gov is the U.S. government's official web portal to all federal, state and local government web resources and services.